Regional Weather Roundup
Issued by NWS Midland/Odessa, TX

Home | Current Version | Previous Version | Text Only | Print | Product List | Glossary On
Versions: 1 2 3 4 5 6 7 8 9 10 11 12 13 14 15 16 17 18 19 20 21 22 23 24 25 26 27 28 29 30 31 32 33 34 35 36 37 38 39 40 41 42 43 44 45 46 47 48 49 50
000
ASUS44 KMAF 281310
RWRMAF
MIDLAND AREA WEATHER ROUNDUP
NATIONAL WEATHER SERVICE MIDLAND TX
800 AM CDT FRI AUG 28 2015

...IN SOUTHWEST TEXAS AND SOUTHEAST NEW MEXICO...

CITY           SKY/WX    TMP DP  RH WIND       PRES   REMARKS
ALPINE         PTCLDY    71  51  49 SW6       30.20R
ANDREWS        FAIR      73  56  57 S10       30.05S
ARTESIA        PTCLDY    70  57  64 NW6       30.06R
BIG SPRING     PTCLDY    70  57  64 SE9       30.06R
CARLSBAD       CLEAR     69  52  54 NW3       30.03R
DRYDEN           N/A     70  54  56 MISG      30.02R
FORT STOCKTON  CLEAR     71  55  56 S10       30.04R
GUAD PASS      CLEAR     70  50  49 W12       30.20R
HOBBS          CLEAR     66  54  63 S5        30.08R
MARFA          PTCLDY    57  54  88 NE6       30.19R
MIDLAND AIRPK  PTCLDY    76  56  49 S12       30.05R
MIDLAND INTL   PTCLDY    74  57  55 S10       30.04R
ODESSA         CLEAR     74  56  53 S9        30.05S
PECOS          CLEAR     70  56  60 CALM      30.00R
PRESIDIO       NOT AVBL
SEMINOLE       MOCLDY    70  56  61 S7        30.07R
SNYDER         CLEAR     73  58  61 S8        30.04R
WINK           CLEAR     74  56  53 SE10      30.01R
$$
...OTHER STATIONS IN TEXAS...

CITY           SKY/WX    TMP DP  RH WIND       PRES   REMARKS
ABILENE        CLEAR     75  60  59 S12       30.01R
AMARILLO       CLOUDY    69  61  75 SE9       30.05S
AUSTIN         MOSUNNY   67  65  93 CALM      30.01R
BROWNSVILLE    SUNNY     74  70  87 N3        29.97R
CORPUS CHRISTI MOSUNNY   70  64  81 NW3       29.99R
DALLAS FTW     MOSUNNY   74  63  68 SE7       30.01R
DEL RIO        MOCLDY    72  59  63 E6        29.99R
EL PASO        MOCLDY    73  57  57 E3        30.07R
HOUSTON INT    MOSUNNY   73  70  90 CALM      30.01R
LUBBOCK        MOCLDY    74  56  53 SW10      30.04R
SAN ANGELO     CLEAR     72  57  59 S8        30.03R
SAN ANTONIO    MOSUNNY   73  63  70 CALM      30.03R
WACO           SUNNY     71  63  75 SE5       30.01R
WICHITA FALLS  NOT AVBL
$$
...OTHER LOCATIONS IN NEW MEXICO...

CITY           SKY/WX    TMP DP  RH WIND       PRES   REMARKS
ALAMAGORDO     CLEAR     68  54  60 CALM      30.10R
ALBUQUERQUE    PTCLDY    65  54  67 CALM      30.22R
CANNON AFB     PTCLDY    67  55  65 N6        30.09R
CLOVIS         PTCLDY    66  54  63 NW8       30.10R
HOLLOMAN AFB   CLEAR     68  54  59 N2        30.08R
ROSWELL        PTCLDY    68  59  73 N8        30.06R
RUIDOSO        PTCLDY    63  50  63 MISG      30.30S
SANTA FE       CLEAR     56  49  77 N6        30.26R
TRUTH OR CONSE CLEAR     68  53  58 NW8       30.15R
TUCUMCARI      CLEAR     64  58  80 CALM      30.08R
$$



USA.gov is the U.S. government's official web portal to all federal, state and local government web resources and services.